TimePST,TemperatureF,Dew PointF,Humidity,Sea Level PressureIn,VisibilityMPH,Wind Direction,Wind SpeedMPH,Gust SpeedMPH,PrecipitationIn,Events,Conditions,WindDirDegrees,DateUTC
12:56 AM,28.9,25.0,85,30.15,10.0,Calm,Calm,-,N/A,,Clear,0,2013-12-29 08:56:00
1:56 AM,30.0,25.0,82,30.14,7.0,East,3.5,-,N/A,,Clear,80,2013-12-29 09:56:00
2:56 AM,30.0,24.1,79,30.15,9.0,Calm,Calm,-,N/A,,Clear,0,2013-12-29 10:56:00
3:56 AM,28.9,25.0,85,30.15,10.0,Calm,Calm,-,N/A,,Clear,0,2013-12-29 11:56:00
4:56 AM,28.9,25.0,85,30.14,10.0,Calm,Calm,-,N/A,,Clear,0,2013-12-29 12:56:00
5:56 AM,28.0,24.1,85,30.14,10.0,North,4.6,-,N/A,,Clear,350,2013-12-29 13:56:00
6:56 AM,26.1,21.9,84,30.17,10.0,Calm,Calm,-,N/A,,Clear,0,2013-12-29 14:56:00
7:56 AM,28.0,24.1,85,30.19,10.0,West,3.5,-,N/A,,Clear,280,2013-12-29 15:56:00
8:56 AM,33.1,27.0,78,30.20,10.0,Calm,Calm,-,N/A,,Clear,0,2013-12-29 16:56:00
9:56 AM,42.1,28.0,58,30.20,10.0,Calm,Calm,-,N/A,,Clear,0,2013-12-29 17:56:00
10:56 AM,50.0,27.0,41,30.19,10.0,North,3.5,-,N/A,,Clear,360,2013-12-29 18:56:00
11:56 AM,55.9,23.0,28,30.16,10.0,Calm,Calm,-,N/A,,Clear,0,2013-12-29 19:56:00
12:56 PM,63.0,21.9,21,30.13,10.0,Calm,Calm,-,N/A,,Clear,0,2013-12-29 20:56:00
1:56 PM,66.0,24.1,20,30.11,10.0,Calm,Calm,-,N/A,,Clear,0,2013-12-29 21:56:00
2:56 PM,66.9,26.1,21,30.09,10.0,West,3.5,-,N/A,,Clear,270,2013-12-29 22:56:00
3:56 PM,61.0,23.0,23,30.10,10.0,West,6.9,-,N/A,,Clear,280,2013-12-29 23:56:00
4:56 PM,55.0,24.1,30,30.11,10.0,Calm,Calm,-,N/A,,Clear,0,2013-12-30 00:56:00
5:56 PM,50.0,24.1,36,30.13,8.0,Calm,Calm,-,N/A,,Clear,0,2013-12-30 01:56:00
6:56 PM,48.0,24.1,39,30.15,10.0,Calm,Calm,-,N/A,,Clear,0,2013-12-30 02:56:00
7:56 PM,43.0,25.0,49,30.17,10.0,Calm,Calm,-,N/A,,Clear,0,2013-12-30 03:56:00
8:56 PM,37.9,25.0,60,30.19,10.0,Calm,Calm,-,N/A,,Clear,0,2013-12-30 04:56:00
9:56 PM,35.1,25.0,67,30.19,9.0,Calm,Calm,-,N/A,,Clear,0,2013-12-30 05:56:00
10:56 PM,32.0,25.0,75,30.21,10.0,Calm,Calm,-,N/A,,Clear,0,2013-12-30 06:56:00
11:56 PM,36.0,26.1,67,30.21,8.0,Calm,Calm,-,N/A,,Clear,0,2013-12-30 07:56:00